Location: Broekland
(52.3610°N, 6.2005°E)
Time: 00:47:51
(UTC+00:00)

Cosmos 1470 - Pass Details

Date: 19 May 2025
Orbit: 455 x 466 km, 82.5° (Epoch: 22 June)

Event Time Altitude Azimuth Distance (km) Brightness Sun altitude
Rises 23:03:50 0° 347° (NNW) 2,520 7.9 -17.4°
Reaches altitude 10° 23:05:56 10° 345° (NNW) 1,639 6.5 -17.4°
Maximum altitude 23:09:30 69° 262° (W) 508 2.5 -17.5°
Enters shadow 23:10:25 45° 196° (SSW) 646 2.7 -17.5°
